Regional Weather Roundup
Issued by NWS

Home | Current Version | Previous Version | Graphics & Text | Print | Product List | Glossary On
Versions: 1 2 3 4 5 6 7 8 9 10 11 12 13 14 15 16 17 18 19 20 21 22 23 24 25 26 27 28 29 30 31 32 33 34 35 36 37 38 39 40 41 42 43 44 45 46 47 48 49 50
000
ASUS45 KBOU 011510
RWRCO

WEATHER ROUNDUP FOR COLORADO
NATIONAL WEATHER SERVICE PUEBLO CO
900 AM MDT SAT AUG 01 2015

NOTE: "FAIR" INDICATES FEW OR NO CLOUDS BELOW 12000 FEET WITH NO
SIGNIFICANT WEATHER AND/OR OBSTRUCTIONS TO VISIBILITY.

COZ001>005-013-030-031-011600-
...NORTHWEST COLORADO...

CITY           SKY/WX    TMP DP  RH WIND       PRES   REMARKS
CRAIG          SUNNY     66  42  41 CALM      30.30F
HAYDEN         SUNNY     63  37  39 E9        30.33R
MEEKER         SUNNY     66  38  35 CALM      30.32S
MOUNT WERNER   NOT AVBL
STEAMBOAT SPGS FAIR      59  42  52 CALM      30.34F
WALDEN         FAIR      59  43  55 CALM      30.42S
$$

COZ006>008-011-011600-
...WEST CENTRAL VALLEYS...

CITY           SKY/WX    TMP DP  RH WIND       PRES   REMARKS
GRAND JUNCTION SUNNY     76  47  35 SE12      30.20S
MONTROSE       MOSUNNY   69  50  50 S5        30.30S
EAGLE          SUNNY     63  43  48 CALM      30.37S
RIFLE          SUNNY     70  45  40 NE5       30.27F
DELTA          NOT AVBL
NUCLA          CLOUDY    66  48  52 CALM      30.35R
$$

COZ017>023-064>068-011600-
...SOUTHWEST COLORADO...

CITY           SKY/WX    TMP DP  RH WIND       PRES   REMARKS
DURANGO        PTSUNNY   68  53  58 N3        30.37S
CORTEZ         CLOUDY    67  60  78 CALM      30.31R
PAGOSA SPRINGS FAIR      61  53  73 CALM      30.44S
TELLURIDE      CLOUDY    56  49  77 CALM      30.54R
WOLF CREEK PAS NOT AVBL
$$

COZ009-010-012-014-032>034-037-058>063-011600-
...CENTRAL COLORADO...

CITY           SKY/WX    TMP DP  RH WIND       PRES   REMARKS
ASPEN          SUNNY     65  45  48 CALM      30.41F
BUENA VISTA    CLOUDY    60  47  61 NW5       30.43F
COPPER MTN     SUNNY     57  36  44 W16       30.73S
BERTHOUD PASS  FAIR      46  36  66 W15G21    30.76S
COTTONWOOD PAS CLOUDY    63  45  51 CALM      30.56S
GUNNISON       MOSUNNY   57  45  62 CALM      30.47S
KREMMLING      SUNNY     59  41  51 CALM      30.42S
LEADVILLE      SUNNY     58  42  55 VRB3      30.55F
MONARCH PASS   CLOUDY    50  41  71 SW13      30.81S
SALIDA         FAIR      64  48  57 CALM      30.47
NIWOT RIDGE    NOT AVBL
SUNLIGHT       SUNNY     61  41  48 CALM      30.66S
WILKERSON PASS SUNNY     55  37  50 NW5       30.67S
$$

COZ069>075-011600-
...SAN LUIS VALLEY/SANGRE DE CRISTO MOUNTAINS...

CITY           SKY/WX    TMP DP  RH WIND       PRES   REMARKS
ALAMOSA        PTSUNNY   62  53  72 S3        30.42R
LA VETA PASS   PTSUNNY   52  45  76 MISG      30.56S
SAGUACHE       CLOUDY    61  48  63 NW8       30.45S
$$

COZ035-036-038>040-011600-
...NORTHERN COLORADO FRONT RANGE...

CITY           SKY/WX    TMP DP  RH WIND       PRES   REMARKS
DENVER INTL AP MOSUNNY   75  50  41 W9        30.19S
DMNS CITY PARK NOT AVBL
AURORA         MOSUNNY   74  53  47 W9        30.22S
FRONT RANGE AP MOSUNNY   75  52  43 W9        30.20F
ERIE MUNI ARPT FAIR      72  53  51 N6        30.18S
BOULDER MUN AP FAIR      72  50  46 CALM      30.18F
CENTENNIAL     MOSUNNY   75  51  43 W8        30.23S
BROOMFIELD     NOT AVBL
LOVELAND       SUNNY     70  54  56 N7        30.18F
LONGMONT       FAIR      75  53  46 CALM      30.19S
$$

COZ041-046-047-076>085-087-088-011600-
...PIKES PEAK/PALMER DIVIDE AND SOUTHERN FOOTHILLS...

CITY           SKY/WX    TMP DP  RH WIND       PRES   REMARKS
COLO. SPRINGS  MOSUNNY   71  58  63 SE5       30.28S
A. F. ACADEMY  SUNNY     67  57  70 E2        30.28F
ELLICOTT       FAIR     N/A N/A N/A S6        30.26F
FALCON         FAIR      69  57  64 S5        30.32F
FORT CARSON    SUNNY     71  57  61 CALM      30.24S
LIMON          SUNNY     72  63  73 SE7       30.22F
MONUMENT HILL  SUNNY     70  54  56 S8        30.32S
TRINIDAD       SUNNY     74  55  51 NW6       30.25S
$$

COZ042>045-048>051-090-091-011600-
...NORTHEAST COLORADO...

CITY           SKY/WX    TMP DP  RH WIND       PRES   REMARKS
GREELEY ARPT   SUNNY     70  55  60 NW3       30.17S
AKRON          SUNNY     78  61  55 S13       30.17R
BURLINGTON     SUNNY     77  62  59 S13       30.17S
WRAY           FAIR      82  64  54 S9        30.12F
STERLING       FAIR      75  63  64 SW12      30.11F
HOLYOKE        NOT AVBL
FORT MORGAN    FAIR      75  61  62 S5        30.16F
$$

COZ086-089-092>099-011600-
...SOUTHEAST COLORADO...

CITY           SKY/WX    TMP DP  RH WIND       PRES   REMARKS
PUEBLO         SUNNY     76  59  55 CALM      30.18F
LA JUNTA       SUNNY     75  61  61 S3        30.15S
LAMAR          SUNNY     76  64  66 E8        30.12S
SPRINGFIELD      N/A     74  64  71 S7        30.17R
$$




USA.gov is the U.S. government's official web portal to all federal, state and local government web resources and services.